Location: Eschelbach
(49.2510°N, 8.7821°E)
Time: 12:17:09
(UTC+00:00)

Daily predictions for brighter satellites

Satellite Brightness Start Highest point End
(mag) Time Altitude Azimuth Time Altitude Azimuth Time Altitude Azimuth
USA 229 DEB 3.7 18:30:14 10° SW 18:36:15 84° NW 18:43:08 10° NE
USA 229 3.7 18:30:17 10° SW 18:36:19 85° NW 18:43:11 10° NE
Cosmos 2278 3.8 18:33:55 10° SSW 18:39:34 87° ESE 18:45:18 10° NNE
Cosmos 1844 Rocket 3.6 18:34:46 10° NW 18:40:08 50° WSW 18:45:29 10° S
Cosmos 2228 Rocket 3.1 18:38:02 10° N 18:42:32 64° ENE 18:46:56 10° SSE
Cosmos 2360 Rocket 2.2 18:38:42 10° SSW 18:44:14 64° ESE 18:49:50 10° NNE
COSMO-SKYMED 1 4.0 18:42:44 10° N 18:46:37 42° WNW 18:50:29 10° SW
Okean-O 4.4 18:44:09 10° E 18:46:46 16° ENE 18:49:24 10° NNE
BlueWalker 3 4.0 18:45:31 10° W 18:48:12 20° SW 18:50:53 10° S
Cosmos 2184 Rocket 4.1 18:45:50 10° S 18:52:06 65° E 18:58:24 10° NNE
Cosmos 2322 Rocket 2.2 18:46:33 10° SSW 18:52:09 79° ESE 18:57:47 10° NNE
Cosmos 1666 Rocket 3.5 18:50:11 10° S 18:54:28 89° E 18:58:48 10° N
Cosmos 1633 Rocket 3.0 18:51:10 10° S 18:55:32 76° E 18:59:55 10° NNE
Cosmos 1340 Rocket 2.6 18:52:33 10° SSW 18:56:12 85° WNW 18:59:53 10° N
ADEOS 4.2 18:52:55 10° SE 18:57:43 39° ENE 19:02:32 10° N
Feng Yun 1-1 Rocket 4.4 18:53:37 10° SE 18:59:05 55° ENE 19:04:26 10° N
BREEZE-M DEB (TANK) 2.7 18:57:24 10° SW 18:59:28 31° SSE 19:02:10 10° E
SL-16 R/B 3.0 18:54:34 10° SW 19:00:09 58° WNW 19:05:46 10° NNE
Terra 2.4 18:56:18 10° SE 19:00:36 38° ENE 19:04:57 10° N
ATLAS 5 CENTAUR R/B 3.6 18:59:34 10° WNW 19:01:42 17° NNW 19:03:59 10° NNE
CSL-04 Debris 4.1 18:57:51 10° SSE 19:03:11 80° ENE 19:08:35 10° NNW
Meteor 1-22 Rocket 4.5 18:58:59 10° SSW 19:04:37 80° WNW 19:10:32 10° N
Cosmos 1898 Rocket 3.5 19:00:08 10° S 19:05:19 65° ESE 19:10:30 10° NNE
CZ-4 R/B 1.2 19:01:40 10° SSE 19:05:26 69° ENE 19:09:11 10° N
Resurs 01 Rocket 3.8 19:03:50 10° SSW 19:07:35 28° W 19:11:22 10° NW
SL-08 R/B 4.3 19:05:18 10° NE 19:09:29 28° E 19:13:40 10° SSE
Okean O Rocket 2.8 19:06:43 12° ESE 19:09:47 25° ENE 19:13:20 10° N
Meteor 1-24 Rocket 4.1 19:08:31 10° NNW 19:13:55 68° W 19:19:27 10° S
Cosmos 2333 4.2 19:09:15 10° SSW 19:14:51 87° ESE 19:20:29 10° NNE
Cosmos 372 Rocket 4.1 19:10:58 10° SSW 19:16:11 81° WNW 19:21:27 10° NNE
Cosmos 1680 Rocket 3.7 19:12:52 10° NNW 19:18:01 55° ENE 19:22:22 14° SE
Cosmos 2219 Rocket 2.1 19:15:08 10° SSW 19:20:42 75° ESE 19:26:17 10° NNE
SPOT 5 3.3 19:16:08 10° S 19:20:52 61° WSW 19:25:23 10° NNW
CZ-4B R/B 4.1 19:19:38 10° S 19:23:11 60° WSW 19:26:52 10° NNW
Cosmos 2074 Rocket 4.2 19:17:37 10° SSW 19:23:50 76° W 19:30:09 10° N
Meteor 1-31 Rocket 3.1 19:22:23 10° S 19:25:50 57° W 19:29:20 10° NNW
Cosmos 1937 Rocket 3.5 19:21:36 10° SSW 19:26:52 73° ESE 19:32:09 10° NNE
SL-24 R/B - RUBIN 2 3.6 19:27:49 10° NW 19:32:14 71° NE 19:35:18 21° SE
USA 186 2.7 19:34:28 18° NE 19:34:28 18° NE 19:35:38 10° NNE
Cosmos 923 Rocket 4.1 19:28:41 10° NNW 19:34:02 85° WSW 19:38:51 13° SSE
USA 234 3.4 19:27:49 10° NE 19:34:24 81° NNW 19:40:57 10° WSW
Cosmos 2369 Rocket 4.5 19:32:35 10° N 19:34:25 11° NNE 19:36:16 10° NE
Cosmos 2112 Rocket 4.0 19:30:24 10° NNW 19:35:37 64° ENE 19:39:16 19° SE
SL-8 Rocket 4.3 19:30:14 10° SSE 19:36:07 46° E 19:42:03 10° NNE
NOSS 2-3 (E) 4.2 19:32:43 10° NW 19:37:39 81° NE 19:42:20 20° SE
COSMOS 2428 3.2 19:32:54 10° S 19:38:05 37° ESE 19:43:19 10° NE
PAYLOAD B 4.3 19:34:38 10° SSE 19:40:08 80° WSW 19:45:41 10° NNW
Cosmos 1953 4.2 19:37:08 10° SW 19:40:19 30° WNW 19:43:32 10° N
CZ-4B R/B 3.2 19:35:07 10° SSE 19:40:38 86° ENE 19:46:18 10° NNW
MetOp-B 4.1 19:35:41 10° SSE 19:41:03 88° ENE 19:46:27 10° NNW
NOSS 2-3 (C) 4.3 19:36:17 10° NW 19:41:06 68° NE 19:45:27 21° SE
CZ-4B DEB 4.5 19:35:53 10° S 19:41:18 69° WSW 19:46:48 10° NNW
Cosmos 2278 Rocket 2.8 19:39:13 10° NNW 19:44:37 43° NE 19:47:49 22° ESE
SKYMED 3 4.2 19:41:58 10° NNE 19:45:51 66° ESE 19:49:41 10° S
Cosmos 2366 rocket 4.2 19:40:11 10° SSE 19:46:05 49° E 19:51:58 10° NNE
Ariane Rocket 4.2 19:46:48 20° E 19:48:49 26° ENE 19:52:59 10° N
Cosmos 2327 Rocket 4.4 19:43:17 10° S 19:49:24 74° E 19:55:40 10° NNE
NOSS 3-2 (C) 4.1 19:42:24 10° NW 19:49:40 79° SW 19:56:23 19° SSE
Cosmos 2333 Rocket 4.0 19:44:35 10° WSW 19:49:43 34° NW 19:54:51 10° NNE
Cosmos 1703 Rocket 4.3 19:49:50 10° NNW 19:54:02 50° W 19:58:11 10° S
Geosat 4.1 19:49:25 10° NNE 19:54:26 79° WNW 19:59:25 10° SW
USA 32 4.4 19:53:57 24° SE 19:56:40 44° E 20:01:37 10° NNE
BREEZE-M DEB (TANK) 2.1 19:54:27 10° W 19:57:00 87° N 19:59:32 24° E
Spot 2 Rocket 3.4 19:53:55 23° SSE 19:57:02 69° ENE 20:02:02 10° N
Lacrosse 5 rocket 0.5 19:56:28 10° SW 19:59:39 67° SE 20:00:40 38° ENE
NOSS 2-3 (D) 4.3 19:54:58 10° NW 19:59:58 79° SW 20:03:53 25° SSE
CZ-2C R/B 4.0 20:00:39 18° NE 20:00:39 18° NE 20:02:16 10° NNE
ARIANE 6 FM1 Upper Stage 3.6 19:57:01 10° WSW 20:01:02 48° NW 20:04:57 10° NE
Cosmos 1809 Rocket 4.5 19:55:09 10° N 20:01:16 66° ENE 20:05:08 24° SSE
Cosmos 1378 Rocket 4.4 19:58:29 10° N 20:02:28 32° ENE 20:03:21 30° E
ERS-1 Rocket 3.5 19:57:52 10° S 20:02:46 56° W 20:07:42 10° NNW
Cosmos 1933 Rocket 3.8 20:00:47 10° SSW 20:05:07 70° W 20:09:32 10° N
Cosmos 1943 Rocket 2.2 20:04:37 10° NNW 20:10:19 73° ENE 20:12:59 32° SE
Cosmos 2218 Rocket 3.9 20:06:05 14° S 20:11:25 69° E 20:17:32 10° NNE
YAOGAN 11 3.9 20:07:22 10° NNE 20:11:36 70° ESE 20:13:55 26° S
Meteor 1-11 4.3 20:08:57 10° N 20:14:26 56° ENE 20:16:34 35° SE
In-Cosmos 22 Rocket 4.3 20:10:02 10° NNW 20:15:22 70° W 20:19:03 20° S
Meteor 2-15 4.4 20:11:09 19° S 20:15:32 65° E 20:21:34 10° NNE
USA 59 Rocket 1.1 20:14:00 10° NNW 20:16:39 23° NE 20:17:17 22° NE
MOS 1-B 4.3 20:14:21 24° SSE 20:18:00 84° WSW 20:23:50 10° NNW
Cosmos 1733 Rocket 3.2 20:18:21 45° ESE 20:18:52 48° E 20:23:05 10° NNE
Cosmos 192 4.4 20:18:37 36° SSE 20:20:13 51° ESE 20:24:58 10° NNE
Cosmos 1959 Rocket 4.4 20:15:53 15° S 20:21:16 77° E 20:27:36 10° NNE
SeaSat 1 3.8 20:19:54 22° ENE 20:21:36 27° NE 20:25:43 10° NNW
CZ-4B R/B 3.5 20:20:21 40° ESE 20:21:46 56° ENE 20:26:29 10° N
NOSS 3-4 (A) 4.0 20:23:13 30° E 20:23:13 30° E 20:27:07 10° NE
Okean-O 2.7 20:20:35 33° S 20:22:31 74° WSW 20:26:55 10° NNW
NOSS 3-4 (C) 4.0 20:23:46 30° E 20:23:46 30° E 20:27:38 10° NE
IRS-1C Rocket 4.4 20:20:58 37° ESE 20:22:38 51° ENE 20:27:44 10° N
Cosmos 494 Rocket 4.4 20:18:38 10° NNW 20:23:42 57° WSW 20:26:29 26° S
ATLAS 3B R/B 4.3 20:18:29 10° W 20:25:45 40° NNW 20:33:07 10° NE
Cosmos 1821 Rocket 4.0 20:22:24 27° SSE 20:25:55 64° E 20:32:09 10° NNE
Cosmos 1048 Rocket 3.8 20:23:04 10° NNW 20:28:13 82° ENE 20:29:52 44° SSE
Cosmos 2360 Rocket 4.3 20:23:49 10° WSW 20:28:39 28° NW 20:33:31 10° NNE
Timation 2 Rocket 3.9 20:27:29 10° NNW 20:33:46 81° ENE 20:36:19 40° SE
Cosmos 1869 Rocket 4.4 20:30:56 10° SSW 20:35:09 49° WNW 20:39:27 10° N
Terra 3.5 20:34:16 11° SSW 20:38:12 29° W 20:42:19 10° NNW
Aureole 3 3.5 20:35:06 10° N 20:39:11 82° ENE 20:40:03 59° SSE
CZ-4 R/B 4.2 20:38:33 10° WSW 20:39:53 12° W 20:41:13 10° WNW
Meteor 2-21 4.4 20:33:58 10° N 20:40:07 89° W 20:42:49 36° S
NOSS 2-1 (D) 4.3 20:39:48 10° NNW 20:42:32 31° NE 20:42:32 31° NE
Cosmos 2242 Rocket 3.6 20:40:57 10° NNW 20:45:28 76° W 20:46:21 56° SSW
Okean O Rocket 2.6 20:43:57 27° SSW 20:45:46 41° W 20:49:55 10° NNW
Cosmos 1000 Rocket 4.5 20:41:17 10° N 20:47:27 64° ENE 20:49:04 47° SE
Cosmos 2237 Rocket 2.2 20:47:31 51° SE 20:48:10 55° ESE 20:53:44 10° NE
Cosmos 1980 3.6 20:47:57 50° SSE 20:49:00 59° ESE 20:54:34 10° NE
Cosmos 1025 Rocket 3.3 20:45:32 10° N 20:49:24 53° ENE 20:49:24 53° ENE
Cosmos 1125 Rocket 3.9 20:51:20 44° E 20:51:20 44° E 20:55:45 10° NNE
CZ-4B R/B 2.9 20:51:35 62° W 20:51:35 62° W 20:54:58 10° NNW
ASTEX 1 3.4 20:50:47 47° SSW 20:52:08 74° W 20:57:04 10° N
Cosmos 2322 4.2 20:46:37 10° SW 20:52:16 62° WNW 20:57:58 10° NNE
Cosmos 2292 Rocket 3.8 20:47:44 10° N 20:53:34 67° ENE 20:54:03 62° ESE
Cosmos 1400 Rocket 3.7 21:03:02 39° N 21:03:02 39° N 21:05:24 10° NNE
IRS-P2 Rocket 4.5 21:02:29 64° SSE 21:03:18 84° ENE 21:08:36 10° NNW
SPOT 3 Rocket 3.8 21:02:10 48° SSW 21:03:28 65° WSW 21:08:39 10° NNW
Cosmos 2219 Rocket 4.4 21:00:40 10° W 21:05:12 25° NW 21:09:48 10° NNE
SL-08 R/B 4.4 21:11:04 60° SE 21:11:57 67° E 21:18:02 10° NNE
Meteor 2-21 Rocket 4.5 21:07:02 10° NNW 21:13:08 74° W 21:14:50 49° SSW
USA 234 4.1 21:10:49 10° ENE 21:17:03 48° N 21:23:16 10° W
Cosmos 2369 Rocket 3.1 21:15:03 10° NNW 21:20:13 36° NE 21:20:57 35° ENE
Cosmos 1674 Rocket 3.9 21:16:00 10° NNW 21:19:57 60° WNW 21:19:57 60° WNW
Cosmos 1908 Rocket 4.5 21:22:14 41° NNE 21:22:14 41° NNE 21:25:11 10° NNE
Helios 1B rocket 4.1 21:23:49 22° NNE 21:23:49 22° NNE 21:25:24 10° N
COSMOS 2428 3.8 21:16:46 10° SW 21:22:14 44° NW 21:27:44 10° NNE
NOSS 0 Rocket 4.3 21:18:55 10° SW 21:25:07 64° NW 21:31:20 10° NNE
Cosmos 1727 Rocket 4.4 21:20:18 10° NNW 21:26:31 57° W 21:28:33 40° SSW
Ariane Rocket 3.5 21:26:52 48° WSW 21:27:26 50° W 21:32:20 10° NNW
Cosmos 2278 Rocket 3.1 21:23:26 10° NW 21:28:39 38° WSW 21:29:39 35° SW
USA 238 DEB 4.1 21:23:02 10° NW 21:30:21 64° SW 21:32:16 50° S
USA 238 4.1 21:23:12 10° NW 21:30:32 65° SW 21:32:26 51° S
Cosmos 2221 Rocket 4.0 21:26:33 10° NNW 21:30:11 60° NNW 21:30:11 60° NNW
Cosmos 1346 Rocket 4.2 21:29:23 10° NNW 21:31:34 33° NW 21:31:34 33° NW
Lacrosse 5 rocket 3.7 21:33:41 10° W 21:34:04 12° WNW 21:34:04 12° WNW
Cosmos 1656 Rocket 3.6 21:45:12 10° NNW 21:50:17 74° WNW 21:50:17 74° WNW
Cosmos 1943 Rocket 3.9 21:49:20 10° NW 21:53:27 21° W 21:54:29 20° WSW
SL-16 R/B 3.1 21:58:05 37° ENE 21:58:05 37° ENE 22:01:43 10° NE
SJ 16-02 4.0 21:55:28 10° NNE 21:56:41 11° NE 21:56:47 11° NE
SeaSat 1 3.0 21:59:30 53° WNW 21:59:30 53° WNW 22:03:33 10° NW
Cosmos 2123 Rocket 4.4 21:57:01 10° NNW 22:03:05 54° W 22:03:50 51° WSW
Cosmos 1934 Rocket 4.1 22:03:44 61° WSW 22:04:33 67° WNW 22:10:49 10° N
USA 59 Rocket 2.2 22:01:59 10° NW 22:02:48 17° WNW 22:02:48 17° WNW
Cosmos 1140 Rocket 4.3 22:04:29 10° NNW 22:08:44 45° NNE 22:08:44 45° NNE
Cosmos 2346 Rocket 4.4 22:04:04 10° N 22:09:59 79° NE 22:09:59 79° NE
NOSS 3-4 (A) 3.8 22:10:28 34° W 22:12:36 53° NW 22:18:29 10° NE
NOSS 3-4 (C) 3.8 22:11:02 35° W 22:13:05 54° NW 22:19:00 10° NE
Cosmos 2285 Rocket 3.9 22:19:16 83° NNE 22:19:16 83° NNE 22:25:24 10° NNE
Cosmos 1535 Rocket 4.5 22:26:51 72° WNW 22:26:51 72° WNW 22:32:52 10° N
Cosmos 967 Rocket 4.5 22:20:20 10° NW 22:26:46 76° NE 22:26:46 76° NE
NOSS 3-1 (C) 3.9 22:20:39 10° NW 22:27:29 75° NE 22:28:43 63° ESE
ALOS 2 4.1 22:29:40 34° N 22:29:40 34° N 22:32:16 10° N
ATLAS 5 CENTAUR R/B 4.0 22:26:37 10° NNW 22:28:53 15° NNE 22:29:34 15° NE
Cosmos 2237 Rocket 3.7 22:29:12 18° W 22:32:31 32° NW 22:37:38 10° NNE
Cosmos 1605 Rocket 4.0 22:32:45 70° WNW 22:32:45 70° WNW 22:38:40 10° N
ARIANE 5 R/B 4.2 22:40:11 32° NNW 22:40:11 32° NNW 22:42:35 10° NNW
Cosmos 2297 4.1 22:32:45 10° NNW 22:37:29 60° NW 22:37:29 60° NW
COSMOS 2455 3.6 22:39:00 10° NNW 22:44:45 43° NE 22:45:16 42° ENE
Cosmos 2173 Rocket 4.3 22:55:45 57° NE 22:55:45 57° NE 23:00:49 10° NNE
USA 234 4.0 22:53:11 10° E 22:59:26 49° N 23:05:41 10° WNW
Cosmos 2100 Rocket 4.2 23:00:25 63° NE 23:00:25 63° NE 23:05:40 10° NNE
Cosmos 2369 Rocket 3.3 22:59:02 10° NW 23:02:43 36° WNW 23:02:43 36° WNW
NOSS 3-1 (A) 4.0 23:11:44 10° NW 23:18:37 74° NE 23:19:58 62° ESE
Cosmos 1943 3.8 23:21:35 52° NNE 23:21:35 52° NNE 23:25:51 10° NNE
SJ 16-02 3.3 23:31:21 10° NNW 23:33:17 25° N 23:33:17 25° N
SL-16 R/B 3.5 23:39:53 32° WNW 23:40:35 32° NW 23:45:40 10° NNE
ACS3 Solar Sail 3.2 23:35:43 10° NE 23:40:25 25° E 23:40:25 25° E
Cosmos 1802 Rocket 4.1 23:43:35 73° NNW 23:43:35 73° NNW 23:49:21 10° N
CZ-2C R/B 3.2 23:44:18 56° NNW 23:44:18 56° NNW 23:48:37 10° NNW
Meteor 2-3 Rocket 4.5 23:41:44 10° NNW 23:45:50 45° NW 23:45:50 45° NW
Cosmos 1725 Rocket 4.1 23:48:08 73° NNW 23:48:08 73° NNW 23:53:54 10° N
Cosmos 1818 4.5 23:46:11 10° NNW 23:51:26 45° NE 23:51:37 45° NE
